Regional Weather Roundup
Issued by NWS

Home | Current Version | Previous Version | Graphics & Text | Print | Product List | Glossary On
Versions: 1 2 3 4 5 6 7 8 9 10 11 12 13 14 15 16 17 18 19 20 21 22 23 24 25 26 27 28 29 30 31 32 33 34 35 36 37 38 39 40 41 42 43 44 45 46 47 48 49 50
000
ASUS43 KDMX 291407
RWRIA

WEATHER ROUNDUP FOR IOWA
NATIONAL WEATHER SERVICE DES MOINES IA
900 AM CDT MON JUN 29 2015

NOTE: "FAIR" INDICATES FEW OR NO CLOUDS BELOW 12,000 FEET WITH NO
SIGNIFICANT WEATHER AND/OR OBSTRUCTIONS TO VISIBILITY.

* - THESE STATIONS ARE NOT NWS STATIONS...THUS NOT UNDER NWS
QUALITY CONTROL.  THEY ALSO DO NOT REPORT WEATHER SUCH
AS PRECIPITATION OR FOG.

IAZ001>003-012>014-020>022-031>034-043>046-291500-
   NORTHWEST IOWA

CITY           SKY/WX    TMP DP  RH WIND       PRES   REMARKS
CARROLL *      SUNNY     73  63  68 NW8       29.91S
CHEROKEE *     SUNNY     72  66  83 N3        29.93R
DENISON *      SUNNY     70  64  83 NW5       29.92R
LE MARS *      SUNNY     70  64  83 CALM      29.95S
ORANGE CITY *  SUNNY     68  63  83 NW5       29.94S
SHELDON *      SUNNY     70  70 100 NW7       29.93S
SIOUX CITY     SUNNY     71  61  70 NW7       29.95R
SPENCER        SUNNY     73  64  73 NW8       29.92S
STORM LAKE *   SUNNY     72  63  73 NW8       29.94R
$$

IAZ055>058-069>071-079>083-090>094-291500-
   SOUTHWEST IOWA

CITY           SKY/WX    TMP DP  RH WIND       PRES   REMARKS
ATLANTIC *     SUNNY     72  63  73 NW6       29.93R
AUDUBON *      SUNNY     72  64  78 NW6       29.93S
CLARINDA *     SUNNY     73  63  68 CALM      29.94S
COUNCIL BLFS * SUNNY     70  63  78 NW7       29.95R
CRESTON *      SUNNY     72  63  73 NW9       29.92S
HARLAN  *      SUNNY     70  70 100 N8        29.96S
LAMONI         SUNNY     75  65  70 NW9       29.91R
RED OAK *      SUNNY     72  63  73 NW6       29.93S
SHENANDOAH *   SUNNY     73  64  73 NW6       29.94S
$$

IAZ047>049-059>061-072>074-084-291500-
   CENTRAL IOWA

CITY           SKY/WX    TMP DP  RH WIND       PRES   REMARKS
AMES           SUNNY     72  64  76 NW9       29.88R
ANKENY *       SUNNY     73  64  73 NW8       29.88R
CHARITON *     SUNNY     73  66  78 NW6       29.89S
DES MOINES     SUNNY     75  63  66 N9        29.87S
GRINNELL*      SUNNY     68  66  94 NW7       29.87S
KNOXVILLE *    SUNNY     72  64  78 NW7       29.86S
MARSHALLTOWN   SUNNY     69  65  86 NW8       29.86S
PELLA *        SUNNY     72  68  88 NW6       29.88S
PERRY *          N/A     72  64  78 NW8       29.89S
$$

IAZ004>006-015-016-023>025-035-036-291500-
   NORTH CENTRAL IOWA

CITY           SKY/WX    TMP DP  RH WIND       PRES   REMARKS
ALGONA *       SUNNY     72  63  73 NW8G15    29.90S
CLARION *      SUNNY     70  64  83 NW9       29.88S
ESTHERVILLE    SUNNY     70  63  78 NW7       29.90S
FORT DODGE *   SUNNY     72  63  73 NW6       29.90S
MASON CITY     SUNNY     71  66  84 NW8       29.88R
FOREST CITY *  SUNNY     68  64  88 NW8       29.88R
IOWA FALLS *     N/A     70  64  83 NW5       29.88S
$$

IAZ007>011-017>019-026>030-037>042-050>054-066-291500-
   NORTHEAST IOWA

CITY           SKY/WX    TMP DP  RH WIND       PRES   REMARKS
CEDAR RAPIDS   PTSUNNY   68  66  93 NW8       29.85R
CHARLES CITY * SUNNY     70  68  94 NW6       29.86S
CLINTON *      CLOUDY    63  61  94 N3        29.87S
DECORAH *        N/A    N/A N/A N/A MISG        N/A
DUBUQUE        CLOUDY    66  62  87 N6        29.84S
MONTICELLO *   CLOUDY    64  63  94 NW6       29.84S
OELWEIN *      MOSUNNY   68  64  88 NW6       29.86S
WATERLOO       SUNNY     68  65  90 NW5       29.84S
$$

IAZ064-065-067-068-078-291500-
   EAST CENTRAL IOWA

CITY           SKY/WX    TMP DP  RH WIND       PRES   REMARKS
DAVENPORT      CLOUDY    63  61  93 W5        29.85R FOG
IOWA CITY      PTSUNNY   67  64  90 NW5       29.86S
MT. PLEASANT * CLOUDY    68  64  88 NW8       29.87R FOG
MUSCATINE *    CLOUDY    64  64 100 NW5       29.86S FOG
QUAD CITIES    PTSUNNY   66  62  87 SW3       29.84S
$$

IAZ062-063-075>077-085>089-095>099-291500-
   SOUTHEAST IOWA

CITY           SKY/WX    TMP DP  RH WIND       PRES   REMARKS
BURLINGTON     CLOUDY    66  64  93 NW5       29.86R
FAIRFIELD *    PTSUNNY   70  64  83 NW7       29.86S
FORT MADISON * CLOUDY    68  68 100 NW6       29.88R
KEOKUK *       CLOUDY    68  66  94 NW5       29.87R
OSKALOOSA *      N/A     72  66  83 NW6       29.87S
CENTERVILLE *  SUNNY     73  66  78 NW7       29.90S
OTTUMWA        SUNNY     71  68  90 NW7       29.85S
WASHINGTON *   CLOUDY    68  66  94 NW5       29.87S
$$

ABBREVIATIONS USED IN REMARKS
   TC - TEMPERATURES IN CELSIUS
  WCI - WIND CHILL INDEX
   HX - HEAT INDEX
  VSB - VISIBILITY
$$




USA.gov is the U.S. government's official web portal to all federal, state and local government web resources and services.